Location: All Nations United Methodist Church
(33.0215°N, 96.7483°W)
Time: 15:44:06
(UTC+00:00)

Meteor 2-10 Rocket - Pass Details

Date: 24 January 2021
Orbit: 733 x 885 km, 81.2° (Epoch: 06 March)

Event Time Altitude Azimuth Distance (km) Brightness Sun altitude
Rises 12:57:43 0° 180° (S) 3,454 7.1 -6.5°
Reaches altitude 10° 13:00:09 10° 178° (S) 2,528 6.5 -6.1°
Maximum altitude 13:05:54 71° 96° (E) 935 4.2 -4.9°
Drops below altitude 10° 13:11:41 10° 13° (NNE) 2,541 6.1 -3.8°
Sets 13:14:08 0° 11° (NNE) 3,473 6.8 -3.3°
